TimeMDT,TemperatureF,Dew PointF,Humidity,Sea Level PressureIn,VisibilityMPH,Wind Direction,Wind SpeedMPH,Gust SpeedMPH,PrecipitationIn,Events,Conditions,WindDirDegrees,DateUTC
12:58 AM,47.5,44.6,90,29.76,10.0,NW,4.6,-,N/A,,Clear,310,2013-05-28 06:58:00
1:58 AM,48.6,45.1,88,29.75,10.0,NNW,4.6,-,N/A,,Clear,330,2013-05-28 07:58:00
2:58 AM,48.0,42.6,82,29.74,10.0,NW,11.5,-,N/A,,Clear,310,2013-05-28 08:58:00
3:58 AM,46.9,41.2,80,29.77,10.0,NW,11.5,-,N/A,,Clear,310,2013-05-28 09:58:00
4:58 AM,45.7,39.9,80,29.76,10.0,WNW,8.1,-,N/A,,Clear,300,2013-05-28 10:58:00
5:58 AM,46.2,39.7,78,29.77,10.0,West,8.1,-,N/A,,Clear,260,2013-05-28 11:58:00
6:58 AM,51.8,41.9,69,29.75,10.0,SW,5.8,-,N/A,,Clear,230,2013-05-28 12:58:00
7:58 AM,57.7,43.0,58,29.73,10.0,SW,6.9,-,N/A,,Clear,220,2013-05-28 13:58:00
8:58 AM,63.1,45.5,53,29.71,10.0,SSE,2.3,-,N/A,,Clear,160,2013-05-28 14:58:00
9:58 AM,66.4,46.4,49,29.70,10.0,SSE,5.8,-,N/A,,Clear,150,2013-05-28 15:58:00
10:58 AM,68.4,43.7,41,29.69,10.0,SSW,5.8,-,N/A,,Clear,200,2013-05-28 16:58:00
11:59 AM,69.8,46.4,43,29.69,10.0,Variable,5.8,-,N/A,,Clear,0,2013-05-28 17:59:00
12:59 PM,71.6,44.6,38,29.69,10.0,SE,11.5,-,N/A,,Partly Cloudy,140,2013-05-28 18:59:00
1:56 PM,73.4,42.8,33,29.67,10.0,SE,9.2,-,N/A,,Partly Cloudy,140,2013-05-28 19:56:00
2:59 PM,73.4,42.8,33,29.66,10.0,East,5.8,-,N/A,,Mostly Cloudy,90,2013-05-28 20:59:00
3:57 PM,73.4,51.8,47,29.65,10.0,NE,8.1,-,N/A,,Mostly Cloudy,50,2013-05-28 21:57:00
4:54 PM,71.6,48.2,43,29.61,10.0,East,15.0,-,N/A,Rain,Light Rain,90,2013-05-28 22:54:00
4:55 PM,71.6,48.2,43,29.62,10.0,East,12.7,-,0.00,Rain,Light Rain,90,2013-05-28 22:55:00
5:07 PM,73.4,50.0,44,29.63,10.0,East,16.1,21.9,N/A,,Scattered Clouds,90,2013-05-28 23:07:00
5:55 PM,69.8,51.1,51,29.64,10.0,East,16.1,21.9,0.00,,Partly Cloudy,90,2013-05-28 23:55:00
6:55 PM,67.3,50.7,55,29.65,10.0,ESE,16.1,21.9,N/A,,Overcast,120,2013-05-29 00:55:00
7:55 PM,64.4,48.2,56,29.65,10.0,SE,8.1,-,N/A,,Overcast,140,2013-05-29 01:55:00
7:58 PM,64.4,50.0,59,29.68,10.0,SE,9.2,-,N/A,Thunderstorm,Thunderstorm,130,2013-05-29 01:58:00
7:59 PM,64.4,50.0,59,29.64,10.0,SE,9.2,-,N/A,Thunderstorm,Thunderstorm,130,2013-05-29 01:59:00
8:13 PM,62.6,50.0,63,29.66,10.0,SE,5.8,-,N/A,,Overcast,130,2013-05-29 02:13:00
8:14 PM,62.6,50.0,63,29.62,10.0,SE,5.8,-,N/A,,Overcast,130,2013-05-29 02:14:00
8:55 PM,62.1,52.5,71,29.62,10.0,ESE,8.1,-,N/A,,Scattered Clouds,120,2013-05-29 02:55:00
9:58 PM,59.2,54.0,83,29.68,10.0,SSE,8.1,-,N/A,,Mostly Cloudy,160,2013-05-29 03:58:00
10:58 PM,58.1,54.1,87,29.68,10.0,South,9.2,-,N/A,,Mostly Cloudy,180,2013-05-29 04:58:00
11:58 PM,57.2,52.2,83,29.66,10.0,SSW,8.1,-,N/A,,Clear,210,2013-05-29 05:58:00